Disclaimer

Please do not use the information listed here in-flight or in-navigation, as they are not provided to us by the airports but are provided by volunteers, so they might be outdated.

Search


Regions


Airport information page

Radio informations:
Tower (TWR) - 122.25 MHz
Automatic Terminal Information Service (ATIS) - 126.8 MHz
Approach (APP) - 132.4 MHz
ACC - 129.7 MHz

Airport informations:
Latitude: 17° 27' 11.22" N
Longitude: 078° 28' 03.31" E
Elevation: 1742 feet - 531 meters
Operating hours: N/A
Operating agency: Military-civil joint use airport
Timezone: UTC+5:30
Fuel: N/A

Runway information:
09/27 - 10600 x 148 feet< - >3231 x 45 meters

Recent METARs:
VOHY 171330Z 00000KT 6000 NSC 24/15 Q1016 NOSIG
VOHY 171330Z 00000KT 6000 NSC 24/15 Q1016 NOSIG
VOHY 171400Z 00000KT 5000 HZ NSC 23/15 Q1016 NOSIG

Airport on the map: